Find Starlink 35272

NORAD ID: 65899 Int'l Des: 2025-224 Owner: SPXS Country: US Constellation: starlink operational
LEOCIRCULAR

当前视图

正在加载3D地球...

About Starlink 35272

Starlink 35272 (NORAD 65899) is a starlink constellation satellite (v2 mini) launched Oct 7, 2025 by SPXS of US. It operates in LEO, CIRCULAR orbit with a mass of 575.00 kg.

即将过境

Passes for default location (London). Set your location on the main map for personalized predictions.

高度历史

Loading altitude history...

两行轨道根数

1 65899U 25224T 26265.23885170 .00016077 00000-0 48575-3 0 9990
2 65899 53.1588 173.6598 0001381 104.3713 255.7443 15.34411639 55029
Epoch: Sep 22, 2026 • Age: 14 hours

当前状态

高度 472.2 km
远地点 / 近地点 N/A
速度 7.63 km/s
星下点 -29.21°S, 149.94°W
发射日期 Oct 7, 2025
运行时间 0.9 years
类型 internet

技术详情

分类 Payload
质量 575.00 kg
干质量 530.00 kg
长度 0.30 m
跨度 29.00 m
形状 ? Box + pan
制造商 SPXS
平台类型 Starlink V2MO
阶段状态 In Orbit
所有者/国家 SPXS/US

Most Searched